Location: Myra
(43.4160°N, 88.0960°W)
Time: 00:59:26
(UTC-05:00)

Daily predictions for brighter satellites

Satellite Brightness Start Highest point End
(mag) Time Altitude Azimuth Time Altitude Azimuth Time Altitude Azimuth
Okean 1-7 2.9 00:04:22 10° NNW 00:08:39 76° W 00:08:58 70° SW
Cosmos 1703 Rocket 4.2 00:07:25 10° NNW 00:11:33 43° W 00:12:10 40° WSW
Helios 1A Rocket 4.1 00:08:30 10° NE 00:11:54 30° E 00:11:54 30° E
Cosmos 1782 4.2 00:10:21 10° NNE 00:13:46 27° ENE 00:14:00 26° E
Cosmos 2227 Rocket 3.5 00:08:49 11° WSW 00:13:48 37° NW 00:19:03 10° N
ATLAS 3B R/B 2.7 00:08:14 10° NW 00:15:10 66° WSW 00:17:16 44° S
Cosmos 2074 Rocket 3.9 00:13:11 45° S 00:15:15 80° E 00:21:34 10° N
Cosmos 2221 Rocket 4.4 00:12:40 10° NNW 00:16:58 41° W 00:17:42 38° WSW
Cosmos 2251 Rocket 3.8 00:12:36 10° NNW 00:17:53 59° ENE 00:19:20 44° ESE
Cosmos 2263 Rocket 4.2 00:19:12 13° ESE 00:19:38 13° E 00:22:08 10° ENE
Terra 4.2 00:17:55 10° WSW 00:19:46 13° W 00:21:49 10° WNW
Cosmos 1340 Rocket 3.4 00:21:31 44° ENE 00:21:31 44° ENE 00:24:53 10° NNE
Cosmos 44 Rocket 3.3 00:21:06 60° S 00:21:52 71° ESE 00:27:06 10° NE
USA 238 DEB 3.8 00:15:15 10° NW 00:22:20 73° NE 00:25:50 32° SE
H-2A R/B 4.4 00:19:51 10° WSW 00:22:22 13° W 00:24:54 10° WNW
USA 238 3.8 00:15:22 10° NW 00:22:25 73° NE 00:25:57 32° SE
Cosmos 2333 Rocket 3.9 00:19:37 10° NW 00:23:43 20° W 00:25:14 18° WSW
Cosmos 2327 Rocket 4.5 00:22:33 45° S 00:24:43 88° W 00:31:11 10° N
SL-16 R/B 2.6 00:21:09 10° NW 00:26:37 49° WSW 00:27:44 43° SW
GEOS 3 Rocket 3.6 00:27:38 56° S 00:28:36 69° SW 00:33:48 10° NW
Cosmos 1674 Rocket 4.1 00:25:08 10° N 00:29:26 48° ENE 00:29:52 46° E
Cosmos 2227 4.2 00:28:50 53° SSE 00:29:50 62° ESE 00:35:27 10° NNE
Cosmos 1689 Rocket 3.1 00:31:12 52° NNW 00:31:12 52° NNW 00:33:48 10° NNW
NOSS 2-3 (E) 3.9 00:30:46 50° SW 00:32:08 84° NW 00:37:54 10° NE
Cosmos 389 Rocket 3.7 00:29:38 10° NNW 00:32:28 35° WNW 00:32:28 35° WNW
SL-08 ROCKET BODY 4.4 00:32:15 47° S 00:34:11 88° W 00:40:23 10° N
Cosmos 1607 4.3 00:29:10 10° NNW 00:35:15 59° NE 00:38:19 29° ESE
CZ-4C R/B 3.4 00:30:37 10° NNW 00:37:25 53° NE 00:43:31 16° ESE
Cosmos 921 Rocket 3.9 00:38:18 35° E 00:38:18 35° E 00:41:46 10° NE
Meteor 2-10 Rocket 3.6 00:33:46 10° N 00:39:22 87° E 00:40:45 54° SSE
Cosmos 2084 Rocket 3.9 00:41:26 44° ENE 00:41:26 44° ENE 00:44:14 10° NE
Cosmos 2297 Rocket 3.7 00:36:45 13° WSW 00:41:06 32° NW 00:46:10 10° N
Meteor 1-27 Rocket 4.5 00:37:10 10° N 00:42:48 46° ENE 00:44:47 34° ESE
Cosmos 2154 Rocket 4.1 00:41:41 46° SSE 00:43:30 65° E 00:49:44 10° NNE
CZ-4B R/B 2.3 00:44:19 45° WNW 00:44:19 45° WNW 00:47:02 10° NNW
CZ-2C R/B 2.9 00:40:26 10° NNE 00:45:29 48° E 00:46:13 45° SE
Cosmos 1908 Rocket 4.3 00:47:05 38° E 00:47:09 39° E 00:51:11 10° NNE
Cosmos 494 Rocket 4.0 00:43:32 10° NNW 00:48:49 76° ENE 00:49:58 54° SE
USA 234 4.5 00:43:22 10° E 00:49:21 40° NNE 00:55:22 10° NW
Cosmos 1932 4.4 00:43:56 10° NW 00:50:20 75° WSW 00:52:12 48° SSE
Cosmos 1943 4.0 00:45:06 10° NNW 00:50:34 46° ENE 00:53:14 27° ESE
SeaSat 1 3.6 00:52:14 28° WSW 00:52:20 28° WSW 00:56:33 10° NW
Cosmos 2184 Rocket 4.4 00:53:19 36° SW 00:55:35 53° WNW 01:01:39 10° N
Cosmos 1862 4.3 00:58:08 36° E 00:58:08 36° E 01:01:40 10° NNE
Cosmos 1603 3.7 00:54:48 10° NNW 01:00:27 68° WSW 01:01:33 55° SSW
Meteor 2-6 Rocket 4.2 00:55:00 10° N 01:00:51 89° E 01:02:26 52° S
Cosmos 1606 3.2 00:57:47 10° N 01:01:27 54° ENE 01:01:27 54° ENE
Lacrosse 4 Rocket 3.3 00:58:15 10° WNW 01:00:59 21° W 01:00:59 21° W
FALCON 9 R/B 3.9 00:55:32 10° W 01:03:14 25° SW 01:03:14 25° SW
Cosmos 1356 Rocket 3.4 01:08:33 69° WNW 01:08:33 69° WNW 01:12:33 10° N
ASTEX 1 4.2 01:05:06 10° N 01:09:40 41° WNW 01:10:43 36° WSW
Aureole 2 Rocket 4.5 01:07:24 10° NW 01:08:41 19° WNW 01:08:41 19° WNW
Cosmos 1238 Rocket 2.9 01:06:30 10° N 01:10:17 67° NE 01:10:17 67° NE
Sich 1 Rocket 3.4 01:12:10 76° SW 01:12:29 83° W 01:17:02 10° N
Cosmos 2341 Rocket 4.0 01:13:16 47° S 01:15:16 89° E 01:21:42 10° N
Cosmos 1733 Rocket 3.8 01:18:46 39° W 01:19:18 41° WNW 01:23:33 10° N
NOSS 3-4 (A) 3.8 01:17:55 43° SSE 01:19:22 51° ESE 01:25:40 10° NE
NOSS 3-4 (C) 3.8 01:18:01 43° SSE 01:19:27 50° ESE 01:25:45 10° NE
Cosmos 1892 4.0 01:19:36 30° WNW 01:19:36 30° WNW 01:22:59 10° NNW
NOSS 3-2 (A) 4.1 01:12:13 10° NW 01:19:41 77° NE 01:25:29 21° SE
Okean 3 3.7 01:15:43 10° N 01:19:59 61° E 01:20:24 58° ESE
Cosmos 962 Rocket 4.4 01:22:44 48° SSW 01:24:35 79° W 01:30:44 10° N
H-2A R/B 4.3 01:22:03 10° NNW 01:25:22 23° WNW 01:26:29 21° W
ALOS 2 4.4 01:25:45 19° W 01:25:45 19° W 01:28:52 10° NW
Coronas F rocket 4.0 01:28:56 17° NW 01:28:56 17° NW 01:30:00 10° NNW
Cosmos 44 3.6 01:27:01 48° SW 01:28:31 75° NW 01:34:01 10° NNE
Cosmos 1378 Rocket 3.4 01:27:04 10° NNW 01:31:27 74° W 01:31:39 73° WSW
SL-8 Rocket 4.0 01:30:12 44° SSE 01:32:18 73° E 01:38:38 10° NNE
MOS 1-B Rocket 4.2 01:31:49 43° SW 01:33:00 49° W 01:38:27 10° NNW
Meteor 2-13 Rocket 4.4 01:34:04 47° S 01:35:58 86° E 01:42:09 10° N
BREEZE-M DEB (TANK) 4.2 01:23:09 10° WNW 01:37:41 77° SSW 01:40:42 23° SE
Cosmos 1408 2.6 01:39:55 78° NNW 01:39:55 78° NNW 01:43:31 10° N
Cosmos 2218 Rocket 4.1 01:37:59 42° SSE 01:40:12 70° E 01:46:31 10° NNE
Cosmos 1825 2.2 01:45:14 70° WNW 01:45:14 70° WNW 01:48:55 10° N
BREEZE-M DEB (TANK) 4.1 01:45:40 10° WNW 01:48:34 42° N 01:56:42 10° ENE
Okean 2 Rocket 3.0 01:51:20 66° SSW 01:51:57 83° W 01:56:30 10° N
Cosmos 2366 rocket 3.9 01:53:00 42° S 01:55:15 79° E 02:01:28 10° N
Cosmos 1782 Rocket 3.6 01:55:09 57° WSW 01:55:38 62° W 02:00:01 10° N
Cosmos 2263 Rocket 2.1 02:00:53 46° SSW 02:02:42 88° WNW 02:08:26 10° NNE
Cosmos 909 Rocket 4.4 02:01:27 37° S 02:03:51 56° ESE 02:10:57 10° NE
CZ-2C R/B 3.7 02:02:40 39° SW 02:04:00 46° W 02:09:26 10° NNW
RESURS DK-1 2.2 02:12:15 66° S 02:12:46 78° ESE 02:16:56 10° NNE
Abrixas rocket 2.9 02:16:30 46° E 02:16:30 46° E 02:19:05 10° ENE
Cosmos 1727 Rocket 3.9 02:09:38 10° N 02:15:53 79° W 02:18:33 37° S
Cosmos 1975 Rocket 3.8 02:13:11 10° NNW 02:17:11 35° W 02:17:28 35° W
COSMOS 2406 3.8 02:11:34 10° NNW 02:17:17 58° ENE 02:22:29 12° SE
Cosmos 1867 3.5 02:12:39 10° NW 02:18:05 64° WSW 02:19:56 40° S
Cosmos 864 Rocket 4.4 02:16:01 39° SSW 02:18:28 74° W 02:24:39 10° N
IRS-P3 4.4 02:16:53 10° NNE 02:22:11 60° E 02:24:25 34° SSE
Cosmos 2278 Rocket 4.4 02:19:29 10° SE 02:22:28 15° E 02:25:26 10° ENE
Cosmos 1624 Rocket 3.9 02:22:12 44° SSW 02:23:55 86° ESE 02:29:12 10° NNE
Iridium 4 Rocket 3.3 02:19:54 10° N 02:24:34 89° E 02:26:21 41° S
CZ-2C R/B 4.2 02:21:23 10° NNW 02:25:26 23° WNW 02:27:45 17° W
CZ-4C R/B 3.3 02:19:21 10° NW 02:26:01 41° WSW 02:28:37 32° SSW
Cosmos 1242 Rocket 2.4 02:23:26 10° NNW 02:26:54 68° W 02:26:54 68° W
Cosmos 1536 Rocket 3.4 02:24:48 10° N 02:29:12 85° W 02:30:27 47° S
Cosmos 1184 Rocket 3.4 02:29:23 44° WNW 02:29:23 44° WNW 02:32:36 10° N
Resurs 1-4 Rocket 4.4 02:28:40 10° NE 02:31:59 16° E 02:35:15 10° SE
USA 234 3.2 02:25:28 10° SE 02:32:01 82° SW 02:38:35 10° NW
PSLV R/B 3.6 02:29:34 10° N 02:33:44 62° WNW 02:34:45 46° SW
Cosmos 1943 4.2 02:29:39 10° NW 02:34:21 27° WSW 02:35:00 27° WSW
SL-08 R/B 3.6 02:32:30 26° SSE 02:35:17 72° ENE 02:40:11 10° N
Meteor 1-14 Rocket 4.5 02:34:38 35° SW 02:37:09 63° WNW 02:43:01 10° N
ATLAS 2A CENTAUR R/B 4.1 02:38:19 23° S 02:39:49 24° SSE 02:54:06 10° ESE
CENTAUR R/B 3.5 02:34:08 10° NNW 02:41:51 65° NE 02:50:04 10° SE
Landsat 4 3.8 02:41:56 51° SW 02:42:22 55° WSW 02:46:07 10° NNW
ARIANE 5 R/B 4.1 02:40:20 10° NE 02:44:33 27° E 02:48:13 12° SSE
Cosmos 1452 Rocket 4.0 02:42:56 28° SSE 02:45:27 53° ESE 02:50:34 10° NNE
NOSS 3-2 (C) 4.3 02:39:46 10° NW 02:46:50 44° WSW 02:51:10 24° S
Cosmos 2151 Rocket 4.2 02:49:34 34° WSW 02:50:50 44° WNW 02:55:08 10° N
AQUA 3.8 02:46:38 10° NNE 02:51:25 77° ESE 02:53:38 32° S
ADEOS 4.1 02:46:28 10° NNE 02:51:36 53° E 02:54:43 23° SSE
CBERS-1 4.0 02:48:35 10° NNE 02:53:45 81° ESE 02:56:24 29° S
Okean 1-7 Rocket 3.8 02:50:33 10° N 02:55:08 75° E 02:57:55 23° SSE
Cosmos 1000 Rocket 4.4 02:52:36 10° N 02:58:46 83° W 03:03:01 21° S
COSMOS 2487 4.5 02:56:55 10° N 03:00:08 29° ENE 03:03:19 10° SE
Cosmos 1536 4.5 02:57:35 14° SE 03:00:25 30° E 03:03:59 10° NNE
Okean 1 Rocket 3.0 02:59:24 32° S 03:01:24 86° E 03:05:53 10° N
Meteor 1-18 Rocket 4.5 02:57:20 10° NNW 03:02:48 52° W 03:05:40 27° SSW
NPP 3.7 03:01:56 10° N 03:07:18 67° WNW 03:10:15 27° SSW
Okean O Rocket 4.3 03:07:26 10° ENE 03:09:01 12° E 03:10:37 10° ESE
Gbstr 26 Del rocket 3.1 03:08:35 34° S 03:09:48 47° SE 03:13:26 10° ENE
SL-16 R/B 3.2 03:04:36 10° SE 03:10:40 57° ENE 03:16:45 10° N
Cosmos 1190 Rocket 4.5 03:06:37 10° NW 03:11:30 41° WSW 03:13:43 27° SSW
Cosmos 1140 Rocket 3.8 03:10:03 10° NNW 03:15:10 66° ENE 03:20:15 10° SSE
NOSS 2-2 (D) 4.3 03:16:07 24° S 03:18:16 44° ESE 03:22:45 10° NE
ERS-2 2.5 03:14:43 10° N 03:18:20 51° WNW 03:19:48 31° SW
GP-B 3.3 03:14:13 10° N 03:18:34 54° W 03:20:45 27° SSW
Cosmos 724 4.4 03:14:25 10° NW 03:20:27 59° WSW 03:26:30 10° SSE
Cosmos 1605 Rocket 4.3 03:15:16 14° S 03:20:33 65° E 03:26:46 10° NNE
Cosmos 1821 Rocket 4.1 03:17:26 21° SSW 03:21:50 75° W 03:28:16 10° N
Cosmos 2123 Rocket 4.1 03:16:55 10° N 03:23:18 86° E 03:29:38 10° S
Cosmos 1812 3.6 03:20:06 10° NNW 03:23:37 32° W 03:24:45 27° SW
Meteor 2-14 Rocket 4.4 03:20:39 18° S 03:25:22 84° E 03:31:28 10° N
EO 1 Del DPAF 3.9 03:22:15 10° SSE 03:26:04 56° ENE 03:29:54 10° N
Cosmos 1850 Rocket 4.4 03:21:38 10° NNW 03:26:51 64° ENE 03:32:04 10° SSE
Cosmos 407 Rocket 4.1 03:22:29 10° NW 03:27:11 37° WSW 03:29:51 22° SSW
Cosmos 1025 Rocket 3.1 03:23:04 10° N 03:27:22 77° E 03:31:24 12° SSE
CZ-2D R/B 2.9 03:22:35 10° NNE 03:27:53 51° E 03:33:03 11° S
Cosmos 1741 Rocket 4.4 03:23:23 10° NNW 03:28:39 65° ENE 03:33:51 10° SSE
Meteor 1-11 Rocket 3.9 03:25:35 18° S 03:30:09 89° E 03:36:11 10° N
Spot 4 Rocket 4.0 03:25:12 10° NNE 03:30:23 81° WNW 03:34:03 20° SSW
Meteor 2-21 Rocket 4.4 03:26:36 19° SSW 03:31:05 77° W 03:37:13 10° N
NOSS 2-2 (C) 3.8 03:30:09 23° SSW 03:32:37 62° ESE 03:37:20 10° NE
Meteor 1-13 Rocket 4.3 03:28:14 10° NNW 03:33:51 64° W 03:38:58 13° S
Meteor 2-15 4.4 03:28:37 10° N 03:34:48 82° W 03:40:56 10° S
Cosmos 676 Rocket 4.4 03:30:20 10° NW 03:35:12 42° WSW 03:38:46 17° SSW
SL-27 R/B 3.7 03:34:16 10° NW 03:37:20 25° W 03:38:09 23° WSW
Okean 1 4.5 03:34:39 10° NNW 03:38:02 27° W 03:39:29 21° SW
Cosmos 1400 Rocket 3.1 03:40:17 14° S 03:43:31 62° E 03:47:25 10° NNE
Cosmos 1844 Rocket 2.9 03:39:58 19° SW 03:44:01 62° WNW 03:49:40 10° NNE
Cosmos 2263 Rocket 4.2 03:43:52 10° W 03:47:29 17° NW 03:51:05 10° N
IRS-1D 3.5 03:45:33 10° NNE 03:50:40 83° WNW 03:55:04 13° SSW
Cosmos 1844 3.8 03:47:31 17° SW 03:51:56 72° WNW 03:57:43 10° NNE
Cosmos 1544 Rocket 3.6 03:47:56 12° S 03:51:59 81° E 03:56:24 10° N
Meteor 1-23 Rocket 4.2 03:47:06 10° N 03:52:52 87° W 03:58:30 10° S
Abrixas rocket 3.5 03:49:48 10° W 03:52:59 39° NNW 03:56:11 10° ENE
USA 161 2.7 03:54:31 21° SW 03:55:23 25° W 03:57:53 10° NW
USA 129 3.8 03:56:00 10° SE 03:57:53 28° ENE 03:59:45 10° N
NOSS 2-2 (E) 3.7 03:55:06 17° SW 03:58:20 71° NW 04:03:23 10° NNE
COSMOS 2406 4.5 03:56:51 10° NW 04:01:07 22° W 04:04:28 13° SW
Cosmos 2297 4.4 03:59:14 10° S 04:04:41 53° ESE 04:10:13 10° NE
BREEZE-M DEB (TANK) 3.9 03:58:47 10° WNW 04:04:41 34° N 04:07:14 10° ENE
Cosmos 2278 Rocket 2.2 04:00:42 13° SSW 04:05:46 81° WNW 04:11:29 10° NNE
ATLAS 5 CENTAUR R/B 2.4 04:01:44 10° NW 04:07:45 88° SW 04:14:09 10° SSE
UNK 3.9 04:03:33 10° S 04:08:03 52° W 04:12:36 10° NNW
Cosmos 1315 Rocket 3.0 04:06:08 10° S 04:10:12 76° E 04:14:16 10° NNE
Resurs 1-4 Rocket 2.2 04:07:01 10° N 04:12:18 66° WNW 04:17:32 10° SSW
Cosmos 1892 Rocket 3.8 04:09:10 10° NNW 04:13:23 49° W 04:17:33 10° SSW
Cosmos 1459 Rocket 4.4 04:07:14 10° S 04:13:31 69° E 04:19:48 10° NNE
Meteor 1-5 Rocket 4.4 04:07:42 10° S 04:13:37 87° E 04:19:23 10° N
Cosmos 614 Rocket 4.0 04:08:52 10° NNW 04:13:57 58° WSW 04:18:58 10° S
IRS-1C Rocket 4.5 04:08:55 10° NNE 04:14:11 66° ESE 04:19:24 10° S
USA 234 4.3 04:10:45 10° S 04:15:37 22° WSW 04:20:32 10° WNW
Cosmos 2100 Rocket 4.2 04:09:47 10° S 04:16:01 77° E 04:22:21 10° N
MTI 4.0 04:14:06 10° S 04:17:19 51° W 04:20:34 10° NNW
Cosmos 1174 4.2 04:16:54 10° NNW 04:20:39 57° NE 04:23:47 10° SE
Okean 2 3.6 04:17:08 10° NNW 04:21:07 51° W 04:25:06 10° S
Cosmos 1346 Rocket 4.4 04:17:40 10° N 04:21:30 38° ENE 04:25:16 10° SE
CZ-4B R/B 3.9 04:16:02 10° NNE 04:21:38 57° E 04:27:11 10° S
MOZ.5/SAFIR/RUBIN 5/SL-8 4.3 04:18:06 10° SSE 04:22:50 66° ENE 04:27:35 10° N
Cosmos 2082 Rocket 2.6 04:17:34 10° NNW 04:23:19 73° ENE 04:29:01 10° SSE
ARIANE 5 R/B 3.2 04:19:11 10° N 04:23:45 37° WNW 04:28:20 10° SW
Cosmos 1356 4.2 04:21:45 11° SW 04:24:56 37° WNW 04:28:17 10° N
Cosmos 1975 3.6 04:21:39 10° S 04:25:32 54° E 04:29:27 10° NNE
Cosmos 1633 3.7 04:23:10 11° SW 04:26:10 28° WNW 04:29:21 10° NNW
Meteor 2-4 Rocket 4.1 04:23:19 10° NNW 04:28:21 40° W 04:33:18 10° SSW
Cosmos 1110 Rocket 4.3 04:26:00 10° SSW 04:31:17 75° ESE 04:36:35 10° NNE
CENTAUR R/B 3.7 04:25:22 10° NW 04:32:20 35° WSW 04:39:33 10° S
Timation 2 Rocket 4.0 04:28:17 10° NW 04:34:16 54° WSW 04:40:04 10° S
ASTRO F (AKARI) 4.4 04:30:59 10° S 04:34:20 69° WSW 04:37:55 10° NNW
Okean-O 4.4 04:30:27 10° NNE 04:34:27 32° E 04:38:25 10° SSE
COSMOS 2487 4.1 04:33:00 10° NW 04:35:33 18° W 04:38:05 10° SW
ADEOS II 4.1 04:31:58 10° NE 04:36:24 27° E 04:40:48 10° SSE
Cosmos 1536 4.4 04:33:45 10° WSW 04:36:54 21° WNW 04:40:05 10° NNW
UNKNOWN OBJECT B 3.6 04:35:28 10° N 04:39:18 40° WNW 04:43:08 10° SW
Thor Agena Rocket 3.6 04:34:21 10° SSE 04:39:32 87° WSW 04:44:42 10° NNW
CZ-2D R/B 3.7 04:36:39 10° N 04:40:33 53° WNW 04:44:29 10° SSW
Cosmos 2061 Rocket 4.1 04:37:04 10° SSW 04:43:23 73° W 04:49:48 10° N
